EW0860 Weather Reports


Display with metric or nautical units.
time (UTC)temp
F
wind
direction
speed
MPH
gust
MPH
rain 1hr
in
rain 24hr
in
rain mn
in
humidity
%
barometer
mb
20260507043036 46 336 0.0 0.0 0.00 0.01 0.01 78 1015.2
20260507041540 46 336 0.0 0.0 0.00 0.01 0.01 77 1015.2
20260507040040 46 336 0.0 0.0 0.00 0.01 0.01 75 1015.3
20260507034535 46 336 0.0 0.0 0.00 0.01 0.01 76 1015.4
20260507033036 45 336 0.0 0.0 0.00 0.01 0.01 74 1015.5
20260507031539 46 336 0.0 0.0 0.00 0.01 0.01 73 1015.3
20260507030033 46 336 0.0 0.0 0.00 0.01 0.01 73 1015.4
20260507024537 46 336 0.0 0.0 0.00 0.01 0.01 71 1015.2
20260507023033 47 336 0.0 0.0 0.00 0.01 0.01 70 1015.1
20260507021537 48 333 0.0 0.0 0.00 0.01 0.01 67 1015.0
20260507020031 49 335 0.0 0.0 0.00 0.01 0.01 64 1014.9
20260507014534 51 336 0.0 0.0 0.00 0.01 0.01 61 1014.7
20260507013036 53 336 0.0 0.0 0.00 0.01 0.01 56 1014.7
20260507011538 55 335 0.0 2.0 0.00 0.01 0.01 50 1014.7
20260507010040 58 333 0.0 2.0 0.00 0.01 0.01 42 1014.5
20260507004529 59 336 0.0 4.0 0.00 0.01 0.01 36 1014.6
20260507003029 60 354 2.0 5.0 0.00 0.01 0.01 35 1014.6
20260507001546 61 359 0.0 4.0 0.00 0.01 0.01 35 1014.6
20260507000032 61 359 2.0 7.0 0.00 0.01 0.01 34 1014.6
20260506234527 61 359 1.0 6.0 0.00 0.01 0.01 34 1014.8
20260506233029 61 31 3.0 7.0 0.00 0.01 0.01 35 1014.7
20260506231527 61 32 4.0 10.0 0.00 0.01 0.01 34 1014.7
20260506230029 61 36 1.0 7.0 0.00 0.01 0.01 36 1014.8
20260506224525 61 35 4.0 10.0 0.00 0.01 0.01 33 1014.8
20260506223025 62 35 3.0 9.0 0.00 0.01 0.01 33 1014.9
20260506221524 62 33 3.0 11.0 0.00 0.01 0.01 35 1014.9
20260506220023 61 359 3.0 9.0 0.00 0.01 0.01 35 1015.0
20260506214521 61 31 1.0 9.0 0.00 0.01 0.01 35 1015.0
20260506213021 61 28 4.0 9.0 0.00 0.01 0.01 34 1015.3
20260506211535 61 27 6.0 13.0 0.00 0.01 0.01 34 1015.5
20260506210030 61 31 4.0 12.0 0.00 0.01 0.01 34 1015.8
20260506204522 61 25 5.0 14.0 0.00 0.01 0.01 34 1016.0
20260506203017 60 8 2.0 12.0 0.00 0.01 0.01 35 1016.2
20260506201516 60 8 3.0 9.0 0.00 0.01 0.01 34 1016.3
20260506200014 60 23 1.0 12.0 0.00 0.01 0.01 37 1016.4
20260506194513 60 8 4.0 10.0 0.00 0.01 0.01 36 1016.5
20260506193012 60 19 4.0 10.0 0.00 0.01 0.01 35 1016.6
20260506191510 58 22 4.0 12.0 0.00 0.01 0.01 35 1016.6
20260506190008 58 24 3.0 8.0 0.00 0.01 0.01 35 1016.7
20260506184508 58 23 3.0 10.0 0.00 0.01 0.01 36 1016.7
20260506183006 58 21 4.0 15.0 0.00 0.01 0.01 37 1017.0
20260506181512 57 359 3.0 12.0 0.00 0.01 0.01 36 1017.1
20260506180002 56 24 4.0 11.0 0.00 0.01 0.01 38 1017.3
20260506174600 56 33 5.0 10.0 0.00 0.01 0.01 37 1017.4
20260506173127 56 330 4.0 8.0 0.00 0.01 0.01 39 1017.4
20260506171604 55 333 3.0 9.0 0.00 0.01 0.01 39 1017.5
20260506170112 55 349 6.0 12.0 0.00 0.01 0.01 38 1017.6
20260506164558 55 326 6.0 13.0 0.00 0.01 0.01 39 1017.6
20260506163058 56 22 3.0 8.0 0.00 0.01 0.01 41 1017.5
20260506161554 56 305 4.0 9.0 0.00 0.02 0.01 43 1017.4
20260506160052 56 307 6.0 11.0 0.00 0.02 0.01 42 1017.2
20260506154607 55 297 5.0 11.0 0.00 0.02 0.01 42 1017.0
20260506153047 55 31 4.0 9.0 0.00 0.02 0.01 46 1017.0
20260506151544 54 342 3.0 10.0 0.00 0.07 0.01 46 1017.1
20260506150041 53 342 3.0 7.0 0.00 0.07 0.01 54 1017.0
20260506144544 52 279 3.0 6.0 0.00 0.07 0.01 58 1017.0
20260506143035 51 323 3.0 7.0 0.00 0.07 0.01 59 1016.9
20260506141532 51 335 2.0 6.0 0.00 0.15 0.01 62 1016.7
20260506140033 50 160 1.0 5.0 0.00 0.15 0.01 63 1016.7
20260506134526 50 318 2.0 5.0 0.00 0.15 0.01 63 1016.4
20260506133025 49 316 2.0 4.0 0.00 0.15 0.01 65 1016.3
20260506131522 49 315 2.0 5.0 0.00 0.21 0.01 67 1016.0
20260506130019 49 13 2.0 4.0 0.00 0.21 0.01 69 1015.7
20260506124518 47 305 0.0 3.0 0.00 0.21 0.01 73 1015.5
20260506123015 46 308 1.0 3.0 0.00 0.21 0.01 78 1015.0
20260506121514 45 308 0.0 0.0 0.00 0.22 0.01 83 1015.0
20260506120011 45 308 0.0 0.0 0.00 0.22 0.01 84 1014.6
20260506114509 45 308 0.0 0.0 0.00 0.22 0.01 83 1014.2
20260506113006 46 308 0.0 0.0 0.00 0.22 0.01 82 1014.1
20260506111506 46 308 0.0 0.0 0.00 0.22 0.01 81 1014.1
20260506110005 46 308 0.0 4.0 0.00 0.22 0.01 81 1014.2
20260506104513 47 308 0.0 0.0 0.00 0.22 0.01 80 1014.3
20260506103008 47 308 0.0 0.0 0.00 0.22 0.01 80 1014.3
20260506101507 47 308 0.0 3.0 0.00 0.22 0.01 82 1014.3
20260506100001 46 310 0.0 3.0 0.00 0.22 0.01 83 1013.9
20260506094600 46 227 0.0 3.0 0.00 0.22 0.01 84 1013.3
20260506093059 46 227 0.0 4.0 0.00 0.22 0.01 84 1013.5
20260506091602 46 35 0.0 0.0 0.00 0.22 0.01 84 1013.4
20260506090058 46 63 0.0 0.0 0.00 0.22 0.01 84 1013.4
20260506084557 46 63 0.0 0.0 0.00 0.22 0.01 85 1013.4
20260506083057 46 63 0.0 0.0 0.00 0.22 0.01 86 1013.5
20260506081600 46 63 0.0 0.0 0.00 0.22 0.01 86 1013.3
20260506073052 47 63 0.0 0.0 0.00 0.22 0.01 84 1012.5
20260506071559 47 63 0.0 0.0 0.00 0.22 0.01 83 1012.3
20260506061542 49 63 0.0 4.0 0.01 0.22 0.01 73 1012.5
20260506044533 50 293 2.0 15.0 0.00 0.21 0.21 70 1013.3